This demonstration page uses our WeatherBlox Daily Observations layout. Learn more.

Left ArrowRight Arrow

40.92945, -100.16068

Hourly Observations for April 22, 2020

Temp ( °F °C ) Dew Point ( °F °C ) Humidity (%) Winds ( mph kmh ) Pressure ( in mb ) Visibility ( mi km ) Precip ( " mm )
12:15 am 00:15 Clear 56 13.6 44 6.6 63 63 SSW 10 17 29.85 1011 10 16 0.00 0.00
12:35 am 00:35 Clear 57 14 44 6.8 62 62 SW 14 22 29.84 1011 10 16 0.00 0.00
12:55 am 00:55 Clear 58 14.4 45 7 61 61 SW 15 24 29.83 1010 10 16 0.00 0.00
1:15 am 01:15 Clear 56 13.6 45 7 65 65 SSW 14 22 29.85 1011 10 16 0.00 0.00
1:35 am 01:35 Clear 56 13.3 45 7 66 66 SW 8 13 29.86 1011 10 16 0.00 0.00
1:55 am 01:55 Clear 56 13.2 45 7.1 67 67 SSW 15 24 29.85 1011 10 16 0.00 0.00
2:15 am 02:15 Clear 55 12.8 45 7.2 69 69 SSW 16 26 29.86 1011 10 16 0.00 0.00
2:35 am 02:35 Clear 54 12.1 45 7.1 72 72 SW 14 22 29.85 1011 10 16 0.00 0.00
2:55 am 02:55 Clear 53 11.8 45 7.1 73 73 SSW 14 22 29.84 1011 10 16 0.00 0.00
3:15 am 03:15 Clear 53 11.6 45 7.1 74 74 SSW 12 19 29.84 1010 10 16 0.00 0.00
3:35 am 03:35 Clear 53 11.4 45 7 75 75 SW 8 13 29.84 1010 10 16 0.00 0.00
3:55 am 03:55 Clear 51 10.3 44 6.6 78 78 WSW 6 9 29.85 1011 10 16 0.00 0.00
4:15 am 04:15 Clear 51 10.6 44 6.7 77 77 WSW 6 9 29.85 1011 10 16 0.00 0.00
4:35 am 04:35 Clear 50 9.9 44 6.6 80 80 SW 9 15 29.85 1011 10 16 0.00 0.00
4:55 am 04:55 Clear 49 9.7 44 6.6 81 81 SW 7 11 29.86 1011 10 16 0.00 0.00
5:15 am 05:15 Clear 49 9.5 44 6.5 82 82 SW 8 13 29.86 1011 10 16 0.00 0.00
5:35 am 05:35 Clear 49 9.7 45 7 83 83 SW 7 11 29.85 1011 10 16 0.00 0.00
5:55 am 05:55 Clear 48 9 44 6.6 85 85 SSW 5 7 29.86 1011 10 16 0.00 0.00
6:15 am 06:15 Clear 48 8.8 44 6.8 87 87 SW 6 9 29.85 1011 10 16 0.00 0.00
6:35 am 06:35 Mostly Cloudy 44 6.7 42 5.3 91 91 WNW 3 6 29.87 1012 10 16 0.00 0.00
6:55 am 06:55 Partly Cloudy 46 7.9 43 6.1 89 89 WSW 3 6 29.87 1012 10 16 0.00 0.00
7:15 am 07:15 Mostly Cloudy 43 6.3 42 5.5 95 95 Calm 29.90 1012 10 16 0.00 0.00
7:35 am 07:35 Mostly Cloudy 45 7.4 43 6.3 93 93 Calm 29.90 1012 10 16 0.00 0.00
7:55 am 07:55 Mostly Cloudy 49 9.6 47 8.1 90 90 WNW 6 9 29.86 1011 10 16 0.00 0.00
8:15 am 08:15 Mostly Cloudy 51 10.6 48 8.7 88 88 Calm 29.85 1011 10 16 0.00 0.00
8:35 am 08:35 Partly Cloudy 51 10.6 48 8.9 89 89 SSW 7 11 29.86 1011 10 16 0.00 0.00
8:55 am 08:55 Sunny 54 12 48 9.1 83 83 S 7 11 29.83 1010 10 16 0.00 0.00
9:15 am 09:15 Partly Cloudy 56 13.1 49 9.4 78 78 S 7 11 29.83 1010 10 16 0.00 0.00
9:35 am 09:35 Mostly Cloudy 57 13.8 49 9.5 75 75 SSW 12 19 29.82 1010 10 16 0.00 0.00
9:55 am 09:55 Cloudy with Drizzle 57 13.8 49 9.6 76 76 SSW 13 20 29.81 1009 10 16 0.00 0.00
10:15 am 10:15 Mostly Cloudy 58 14.4 50 9.9 75 75 WSW 8 13 29.81 1010 10 16 0.00 0.00
10:35 am 10:35 Sunny 60 15.6 50 10.1 70 70 WSW 10 17 29.80 1009 10 16 0.00 0.00
10:55 am 10:55 Sunny 61 16.1 50 10 67 67 WSW 6 9 29.79 1009 10 16 0.00 0.00
11:15 am 11:15 Sunny 63 17.2 51 10.3 64 64 SW 10 17 29.79 1009 10 16 0.00 0.00
11:35 am 11:35 Sunny 64 17.8 51 10.5 63 63 SW 8 13 29.77 1008 10 16 0.00 0.00
11:55 am 11:55 Sunny 65 18.5 51 10.3 59 59 W 7 11 29.76 1008 10 16 0.00 0.00
12:15 pm 12:15 Sunny 67 19.6 51 10.3 55 55 W 13 20 29.75 1007 10 16 0.00 0.00
12:35 pm 12:35 Sunny 68 19.8 51 10.6 56 56 WNW 10 17 29.72 1007 10 16 0.00 0.00
12:55 pm 12:55 Sunny 68 20.1 51 10.3 53 53 NW 7 11 29.72 1006 10 16 0.00 0.00
1:15 pm 13:15 Sunny 69 20.8 51 10.4 52 52 WNW 13 20 29.70 1006 10 16 0.00 0.00
1:35 pm 13:35 Sunny 71 21.6 49 9.7 47 47 NW 9 15 29.67 1005 10 16 0.00 0.00
1:55 pm 13:55 Sunny 72 22.2 48 9.1 43 43 N 10 17 29.65 1004 10 16 0.00 0.00
2:15 pm 14:15 Sunny 74 23.3 46 7.8 37 37 NNW 15 24 29.64 1004 10 16 0.00 0.00
2:35 pm 14:35 Sunny 74 23.3 42 5.7 32 32 N 16 26 29.63 1003 10 16 0.00 0.00
2:55 pm 14:55 Partly Cloudy 75 24.1 44 6.5 32 32 N 18 30 29.62 1003 10 16 0.00 0.00
3:15 pm 15:15 Partly Cloudy 75 24 39 3.9 27 27 N 10 17 29.62 1003 10 16 0.00 0.00
3:35 pm 15:35 Sunny 75 23.9 38 3.3 26 26 NNW 21 33 29.61 1003 10 16 0.00 0.00
3:55 pm 15:55 Sunny 75 24.1 36 2.3 24 24 N 20 31 29.61 1003 10 16 0.00 0.00
4:15 pm 16:15 Partly Cloudy 76 24.5 36 2.1 23 23 N 22 35 29.61 1003 10 16 0.00 0.00
4:35 pm 16:35 Partly Cloudy 76 24.6 35 1.9 23 23 N 20 31 29.59 1002 10 16 0.00 0.00
4:55 pm 16:55 Sunny 76 24.5 37 2.9 25 25 NE 16 26 29.59 1002 10 16 0.00 0.00
5:15 pm 17:15 Partly Cloudy 74 23.3 35 1.4 24 24 NNE 18 30 29.60 1002 10 16 0.00 0.00
5:35 pm 17:35 Partly Cloudy 75 23.9 35 1.7 23 23 NE 20 31 29.59 1002 10 16 0.00 0.00
5:55 pm 17:55 Partly Cloudy 76 24.2 34 0.9 22 22 N 16 26 29.59 1002 10 16 0.00 0.00
6:15 pm 18:15 Sunny 74 23.5 33 0.5 22 22 N 18 30 29.60 1002 10 16 0.00 0.00
6:35 pm 18:35 Partly Cloudy 74 23.6 34 1.2 23 23 NE 18 30 29.61 1003 10 16 0.00 0.00
6:55 pm 18:55 Partly Cloudy 73 22.9 34 1.2 24 24 N 14 22 29.62 1003 10 16 0.00 0.00
7:15 pm 19:15 Partly Cloudy 73 22.8 34 1.2 24 24 NNE 15 24 29.62 1003 10 16 0.00 0.00
7:35 pm 19:35 Partly Cloudy 72 22 33 0.8 25 25 N 9 15 29.64 1004 10 16 0.00 0.00
7:55 pm 19:55 Sunny 70 20.9 35 1.5 28 28 NNE 9 15 29.65 1004 10 16 0.00 0.00
8:15 pm 20:15 Sunny 67 19.5 34 1.2 30 30 NNE 8 13 29.67 1005 10 16 0.00 0.00
8:35 pm 20:35 Clear 63 17 35 1.8 36 36 N 7 11 29.69 1005 10 16 0.00 0.00
8:55 pm 20:55 Partly Cloudy 61 16 37 2.5 41 41 N 7 11 29.71 1006 10 16 0.00 0.00
9:15 pm 21:15 Clear 62 16.4 36 2.2 39 39 N 10 17 29.70 1006 10 16 0.00 0.00
9:35 pm 21:35 Clear 61 16.1 37 2.5 40 40 NNE 8 13 29.72 1006 10 16 0.00 0.00
9:55 pm 21:55 Clear 59 15.2 36 2 41 41 NNE 8 13 29.72 1007 10 16 0.00 0.00
10:15 pm 22:15 Clear 54 12.1 35 1.7 49 49 N 8 13 29.76 1008 10 16 0.00 0.00
10:35 pm 22:35 Clear 51 10.8 35 1.7 54 54 N 8 13 29.77 1008 10 16 0.00 0.00
10:55 pm 22:55 Partly Cloudy 50 10.2 34 1.2 54 54 N 6 9 29.78 1008 10 16 0.00 0.00
11:15 pm 23:15 Clear 49 9.3 34 1.1 57 57 NW 3 6 29.79 1009 10 16 0.00 0.00
11:35 pm 23:35 Clear 49 9.3 36 2.2 61 61 WNW 8 13 29.80 1009 10 16 0.00 0.00
11:55 pm 23:55 Clear 48 8.7 37 2.7 66 66 W 9 15 29.80 1009 10 16 0.00 0.00

Powered by AerisWeather